Regional Weather Roundup
Issued by NWS

Home | Current Version | Previous Version | Graphics & Text | Print | Product List | Glossary On
Versions: 1 2 3 4 5 6 7 8 9 10 11 12 13 14 15 16 17 18 19 20 21 22 23 24 25 26 27 28 29 30 31 32 33 34 35 36 37 38 39 40 41 42 43 44 45 46 47 48 49 50
000
ASUS45 KPSR 312110
RWRAZ

ARIZONA HOURLY REGIONAL WEATHER ROUNDUP
NATIONAL WEATHER SERVICE PHOENIX AZ
200 PM MST MON AUG 31 2015

NOTE: FAIR INDICATES FEW OR NO CLOUDS BELOW 12,000 FEET WITH NO
SIGNIFICANT WEATHER AND/OR OBSTRUCTIONS TO VISIBILITY.

AZZ001>003-036-312200-
NORTHWEST ARIZONA

CITY           SKY/WX    TMP DP  RH WIND       PRES   REMARKS
BULLHEAD CITY  FAIR     104  46  14 S18G24    29.76F HX 100
KINGMAN        FAIR      96  46  18 SW22G29   29.98F
$$

AZZ004>008-015-016-018-312200-
NORTH CENTRAL ARIZONA

CITY           SKY/WX    TMP DP  RH WIND       PRES   REMARKS
GRAND CANYON   FAIR      69  54  58 SE6       30.26
WILLIAMS       PTSUNNY   66  54  63 CALM      30.32R
PRESCOTT       FAIR      85  54  34 S14G23    30.12F
FLAGSTAFF      PTSUNNY   69  54  58 SW9       30.29S
PAYSON         FAIR      86  55  35 VRB7G18   30.14F
PAGE           FAIR      81  57  43 N5        30.07F
$$

AZZ009>014-017-312200-
NORTHEAST ARIZONA

CITY           SKY/WX    TMP DP  RH WIND       PRES   REMARKS
WINSLOW        TSTM      72  60  66 VRB7G32   30.13R
SAINT JOHNS    FAIR      78  54  43 SW6       30.18F
WINDOW ROCK    FAIR      81  49  32 NE7       30.23F
SHOW LOW       PTSUNNY   73  50  43 E18       30.23F
$$

AZZ023-312200-
GREATER PHOENIX AREA

CITY           SKY/WX    TMP DP  RH WIND       PRES   REMARKS
PHOENIX        FAIR     104  57  21 SW13G18   29.80F HX 103
BUCKEYE        FAIR     102  57  22 SE6       29.80F HX 101
GLENDALE       MOSUNNY  102  59  24 CALM      29.82F HX 102
LUKE AFB       FAIR     103  60  24 VRB6      29.79F HX 104
DEER VALLEY    FAIR     100  57  23 SW10      29.82F
SCOTTSDALE     FAIR     100  57  23 VRB7      29.85F
MESA-FALCON    MOSUNNY  100  59  25 S12       29.83F HX 100
MESA-GATEWAY   MOSUNNY   99  61  28 N6        29.85F
$$

AZZ027-028-312200-
SOUTHWEST MARICOPA COUNTY AND PINAL COUNTY

CITY           SKY/WX    TMP DP  RH WIND       PRES   REMARKS
CASA GRANDE    FAIR     102  59  24 CALM      29.83F HX 102
GILA BEND      MOSUNNY  107  54  17 SE13G20   29.76F HX 105
$$

AZZ503-504-507>509-312200-
SOUTHEAST ARIZONA

CITY           SKY/WX    TMP DP  RH WIND       PRES   REMARKS
TUCSON         FAIR      96  57  27 SW8       29.96F
DAVIS-MONTHAN  FAIR      94  57  28 SW8       29.94F
RYAN FIELD     SUNNY     97  61  30 SE3       29.96S
NOGALES        LGT RAIN  75  65  70 E6        30.06F
SIERRA VISTA   PTSUNNY   81  62  52 N8        30.12F
DOUGLAS        FAIR      89  50  26 CALM      30.06F
SAFFORD        FAIR      96  55  25 VRB7      29.95F
$$

AZZ020-021-025-026-031-312200-
SOUTHWEST ARIZONA

CITY           SKY/WX    TMP DP  RH WIND       PRES   REMARKS
YUMA           FAIR     105  62  24 SW9G20    29.74F HX 107
$$

CAZ031-033-041-043-047-048-061-312200-
SOUTHERN CALIFORNIA

CITY           SKY/WX    TMP DP  RH WIND       PRES   REMARKS
DOWNTOWN L.A.  NOT AVBL
L.A. AIRPORT   FAIR      77  63  61 W12       29.90F
SAN DIEGO      FAIR      75  61  61 S10       29.91F
BURBANK        FAIR      84  60  44 S9        29.88F
ONTARIO        FAIR      89  55  31 W10       29.88F
RIVERSIDE      FAIR      89  56  32 W8G18     29.87F
PALM SPRINGS   FAIR     104  43  12 NE7       29.78F
EL CENTRO NAS  FAIR     104  48  15 E6        29.74F HX 100
IMPERIAL       FAIR     106  52  16 NE7       29.72F HX 103
BLYTHE         FAIR     105  61  23 S14G21    29.75F HX 106
NEEDLES        FAIR     107  43  11 SW13G22   29.77F HX 102
$$

NVZ020-UTZ003-312200-
SOUTHERN NEVADA-UTAH

CITY           SKY/WX    TMP DP  RH WIND       PRES   REMARKS
LAS VEGAS      FAIR     101  44  14 N7        29.80F
SALT LAKE CITY FAIR      85  41  21 NW10      30.02F
$$

NMZ009-TXZ055-312200-
NEW MEXICO-WEST TEXAS

CITY           SKY/WX    TMP DP  RH WIND       PRES   REMARKS
ALBUQUERQUE    FAIR      89  44  20 VRB3      30.11F
EL PASO        FAIR      95  41  15 S8        30.02F
$$


........................KEY........................
SKY/WX - SKY CONDITION/WEATHER
TMP    - TEMPERATURE IN FAHRENHEIT
DP     - DEW POINT IN FAHRENHEIT
RH     - RELATIVE HUMIDITY IN PERCENT
WIND   - DIRECTION AND SPEED IN MILES PER HOUR (MPH)
VRB    - VARIABLE WIND DIRECTION
PRES   - MEAN SEA LEVEL PRESSURE IN INCHES OF MERCURY
         F - FALLING PRESSURE   R - RISING PRESSURE
         S - STEADY PRESSURE
VSB    - VISIBILITY IN MILES
HX     - HEAT INDEX IN FAHRENHEIT
WCI    - WIND CHILL INDEX IN FAHRENHEIT
TC     - TEMPERATURE IN CELSIUS WHICH IS ALSO KNOWN AS
         TEMPERATURE IN CENTIGRADE
AFB    - AIR FORCE BASE
         LUKE AFB IS LUKE AIR FORCE BASE
         DAVIS-MONTHAN IS DAVIS-MONTHAN AIR FORCE BASE
NAS    - NAVAL AIR STATION
         EL CENTRO NAS IS EL CENTRO NAVAL AIR STATION
N/A    - NOT AVAILABLE



USA.gov is the U.S. government's official web portal to all federal, state and local government web resources and services.